Location: Paddlesworth
(51.1000°N, 1.1333°E)
Time: 16:41:05
(UTC+00:00)

SWARM A - Pass Details

Date: 11 May 2021
Orbit: 427 x 431 km, 87.4° (Epoch: 21 June)

Event Time Altitude Azimuth Distance (km) Brightness Sun altitude
Rises 20:45:00 0° 1° (N) 2,421 8.7 -9.6°
Reaches altitude 10° 20:47:06 10° 6° (N) 1,547 7.6 -9.9°
Maximum altitude 20:50:23 54° 85° (E) 536 4.4 -10.2°
Enters shadow 20:53:05 14° 161° (SSE) 1,306 6.1 -10.5°
